Home   Weather   Adak   Past weeks

Flag for USA Past Weather in Adak, Alaska, USA — Yesterday and Last 2 Weeks

46 °F


Feels Like: 40 °F
Forecast: 43 / 50 °F
Wind: 15 mph from South

Location: Adak

Current Time: Oct 27, 2016 at 6:02:46 AM

Latest Report: Oct 27, 2016 at 5:36 AM

Visibility: 9 mi

Pressure: 29.48 "Hg

Humidity: 71%

Dew Point: 37 °F

Location of AdakLocation

Past Weather in Adak — Graph


Adak Temperature Yesterday

Maximum temperature yesterday: 50 °F (at 7:16 PM)
Minimum temperature yesterday: 41 °F (at 12:56 AM)
Average temperature yesterday: 45 °F

High & Low Weather Summary for the Past Weeks

High54 °F (Oct 24, 10:16 AM)81% (Oct 15, 11:16 PM)29.98 "Hg (Oct 15, 11:16 PM)
Low30 °F (Oct 19, 4:36 AM)50% (Oct 13, 3:36 PM)29.27 "Hg (Oct 24, 5:16 PM)
Average45 °F67%29.72 "Hg
* Reported Oct 12 4:16 AM — Oct 27 4:56 AM, Adak, Weather by CustomWeather, © 2016

Note: Actual official high and low records may vary slightly from our data, if they occured in-between our weather recording intervals... More about our weather records


Adak Weather History for the Previous 24 Hours

Scroll right to see more
Time TempWeatherWind HumidityBarometerVisibility
4:56 AM
Thu, Oct 27
46 °FMostly cloudy.16 mph71%29.51 "Hg7 mi
4:36 AM46 °FMostly cloudy.22 mph71%29.53 "Hg7 mi
4:16 AM46 °FMostly cloudy.21 mph66%29.53 "Hg8 mi
3:56 AM46 °FMostly cloudy.23 mph66%29.55 "Hg8 mi
3:36 AM46 °FMostly cloudy.18 mph66%29.56 "Hg8 mi
3:16 AM46 °FMostly cloudy.22 mph66%29.57 "Hg10 mi
2:56 AM46 °FMostly cloudy.23 mph66%29.57 "Hg8 mi
2:36 AM46 °FMostly cloudy.21 mph66%29.56 "Hg8 mi
2:16 AM46 °FOvercast.21 mph66%29.56 "Hg8 mi
1:56 AM46 °FOvercast.20 mph66%29.55 "Hg8 mi
1:36 AM46 °FOvercast.28 mph66%29.54 "Hg9 mi
1:16 AM46 °FOvercast.28 mph66%29.55 "Hg10 mi
12:56 AM46 °FOvercast.31 mph66%29.55 "Hg8 mi
12:36 AM46 °FMostly cloudy.32 mph66%29.55 "Hg9 mi
12:16 AM46 °FOvercast.29 mph66%29.54 "Hg9 mi
11:56 PM
Wed, Oct 26
46 °FMostly cloudy.28 mph66%29.53 "Hg9 mi
11:36 PM46 °FMostly cloudy.35 mph66%29.51 "Hg7 mi
11:16 PM48 °FMostly cloudy.35 mph66%29.50 "Hg7 mi
10:56 PM48 °FMostly cloudy.29 mph66%29.50 "Hg7 mi
10:36 PM48 °FOvercast.30 mph66%29.49 "Hg7 mi
10:16 PM48 °FMostly cloudy.30 mph66%29.48 "Hg6 mi
9:56 PM48 °FMostly cloudy.33 mph66%29.49 "Hg5 mi
9:36 PM48 °FMostly cloudy.30 mph66%29.47 "Hg5 mi
9:16 PM48 °FMostly cloudy.35 mph66%29.47 "Hg5 mi
8:56 PM48 °FPartly cloudy.32 mph66%29.48 "Hg7 mi
8:36 PM48 °FMostly cloudy.44 mph66%29.46 "Hg4 mi
8:16 PM50 °FOvercast.43 mph67%29.46 "Hg5 mi
7:56 PM50 °FMostly cloudy.38 mph62%29.46 "Hg9 mi
7:36 PM50 °FOvercast.46 mph67%29.46 "Hg8 mi
7:16 PM50 °FOvercast.39 mph67%29.47 "Hg10 mi
6:56 PM48 °FMostly cloudy.29 mph71%29.49 "Hg5 mi
6:36 PM46 °FMostly cloudy.25 mph71%29.52 "Hg6 mi
6:16 PM45 °FMostly cloudy.20 mph76%29.56 "Hg4 mi
5:56 PM45 °FBroken clouds.21 mph71%29.58 "Hg6 mi
5:36 PM45 °FBroken clouds.15 mph71%29.61 "Hg9 mi
5:16 PM45 °FMostly cloudy.23 mph71%29.63 "Hg5 mi
4:56 PM45 °FCloudy.14 mph71%29.66 "Hg10 mi
4:36 PM46 °FBroken clouds.17 mph66%29.68 "Hg8 mi
3:56 PM46 °FCloudy.21 mph62%29.71 "Hg10 mi
3:36 PM46 °FCloudy.24 mph57%29.72 "Hg10 mi
3:16 PM46 °FMostly cloudy.22 mph53%29.74 "Hg10 mi
2:56 PM45 °FCloudy.22 mph66%29.75 "Hg10 mi
2:36 PM45 °FCloudy.23 mph61%29.77 "Hg8 mi
2:16 PM46 °FPartly sunny.24 mph57%29.78 "Hg10 mi
1:36 PM46 °FBroken clouds.23 mph57%29.80 "Hg10 mi
1:16 PM46 °FBroken clouds.22 mph62%29.80 "Hg10 mi
12:56 PM45 °FBroken clouds.25 mph61%29.81 "Hg10 mi
12:36 PM45 °FPartly sunny.20 mph66%29.81 "Hg10 mi
12:16 PM45 °FScattered clouds.24 mph61%29.81 "Hg10 mi
11:56 AM43 °FScattered clouds.17 mph61%29.81 "Hg10 mi
11:36 AM43 °FBroken clouds.16 mph61%29.81 "Hg10 mi
11:16 AM43 °FBroken clouds.23 mph61%29.82 "Hg10 mi
10:56 AM43 °FScattered clouds.20 mph61%29.82 "Hg10 mi
10:36 AM43 °FPassing clouds.15 mph61%29.81 "Hg10 mi
10:16 AM43 °FPassing clouds.21 mph61%29.79 "Hg10 mi
9:56 AM43 °FPassing clouds.18 mph61%29.78 "Hg10 mi
9:36 AM41 °FSunny.26 mph66%29.77 "Hg10 mi
9:16 AM41 °FSunny.28 mph66%29.76 "Hg10 mi
8:56 AM43 °FSunny.30 mph61%29.77 "Hg10 mi
8:36 AM43 °FSunny.28 mph61%29.77 "Hg10 mi
7:56 AM43 °FMostly cloudy.24 mph61%29.78 "Hg10 mi
7:36 AM43 °FMostly cloudy.28 mph61%29.77 "Hg10 mi
7:16 AM43 °FPartly cloudy.28 mph61%29.77 "Hg10 mi
6:56 AM43 °FPassing clouds.33 mph57%29.76 "Hg10 mi
6:36 AM43 °FPassing clouds.29 mph61%29.76 "Hg10 mi
6:16 AM43 °FPassing clouds.31 mph61%29.75 "Hg10 mi
Weather by CustomWeather, © 2016

See weather overviewHow to use our weather pages